Hourly Weather Dakor

Today, 17 April, Saturday

Time Temperature Precipitation Wind Pressure Humidity
00:00 +30°C° 0 mm 3 mps 752 mmHg 43%
01:00 +30°C° 0 mm 3 mps 751 mmHg 44%
02:00 +30°C° 0 mm 3 mps 751 mmHg 44%
03:00 +29°C° 0 mm 3 mps 751 mmHg 47%
04:00 +29°C° 0 mm 3 mps 751 mmHg 50%
05:00 +28°C° 0 mm 3 mps 752 mmHg 53%
06:00 +30°C° 0 mm 3 mps 752 mmHg 52%
07:00 +31°C° 0 mm 3 mps 753 mmHg 52%
08:00 +33°C° 0 mm 3 mps 753 mmHg 51%
09:00 +35°C° 0 mm 3 mps 753 mmHg 42%
10:00 +37°C° 0 mm 3 mps 753 mmHg 33%
11:00 +40°C° 0 mm 3 mps 753 mmHg 24%
12:00 +42°C° 0 mm 3 mps 752 mmHg 19%
13:00 +43°C° 0 mm 4 mps 751 mmHg 15%
14:00 +45°C° 0 mm 5 mps 750 mmHg 11%
15:00 +45°C° 0 mm 5 mps 750 mmHg 11%
16:00 +45°C° 0 mm 5 mps 750 mmHg 11%
17:00 +43°C° 0 mm 5 mps 750 mmHg 11%
18:00 +41°C° 0 mm 5 mps 750 mmHg 13%
19:00 +39°C° 0 mm 5 mps 751 mmHg 14%
20:00 +36°C° 0 mm 5 mps 751 mmHg 16%
21:00 +35°C° 0 mm 4 mps 752 mmHg 17%
22:00 +35°C° 0 mm 4 mps 752 mmHg 19%
23:00 +34°C° 0 mm 3 mps 752 mmHg 20%

Tomorrow, 18 April, Sunday

Time Temperature Precipitation Wind Pressure Humidity
00:00 +33°C° 0 mm 3 mps 752 mmHg 23%
01:00 +31°C° 0 mm 3 mps 752 mmHg 25%
02:00 +30°C° 0 mm 3 mps 752 mmHg 28%
03:00 +29°C° 0 mm 2 mps 752 mmHg 34%
04:00 +29°C° 0 mm 2 mps 752 mmHg 41%
05:00 +28°C° 0 mm 2 mps 752 mmHg 47%
06:00 +30°C° 0 mm 2 mps 753 mmHg 44%
07:00 +32°C° 0 mm 2 mps 754 mmHg 41%
08:00 +35°C° 0 mm 3 mps 754 mmHg 38%
09:00 +37°C° 0 mm 3 mps 754 mmHg 31%
10:00 +39°C° 0 mm 3 mps 753 mmHg 25%
11:00 +43°C° 0 mm 3 mps 753 mmHg 18%
12:00 +43°C° 0 mm 3 mps 752 mmHg 16%
13:00 +43°C° 0 mm 2 mps 751 mmHg 13%
14:00 +45°C° 0 mm 2 mps 750 mmHg 11%
15:00 +45°C° 0 mm 2 mps 750 mmHg 10%
16:00 +45°C° 0 mm 2 mps 749 mmHg 10%
17:00 +45°C° 0 mm 3 mps 749 mmHg 10%
18:00 +43°C° 0 mm 3 mps 749 mmHg 11%
19:00 +41°C° 0 mm 4 mps 750 mmHg 13%
20:00 +39°C° 0 mm 5 mps 751 mmHg 14%
21:00 +37°C° 0 mm 4 mps 751 mmHg 16%
22:00 +35°C° 0 mm 3 mps 751 mmHg 18%
23:00 +34°C° 0 mm 2 mps 751 mmHg 20%

Day after tomorrow, 19 April, Monday

Time Temperature Precipitation Wind Pressure Humidity
00:00 +32°C° 0 mm 2 mps 751 mmHg 22%
01:00 +31°C° 0 mm 3 mps 751 mmHg 24%
02:00 +30°C° 0 mm 3 mps 750 mmHg 26%
03:00 +30°C° 0 mm 2 mps 751 mmHg 31%
04:00 +29°C° 0 mm 2 mps 751 mmHg 36%
05:00 +28°C° 0 mm 2 mps 751 mmHg 41%
06:00 +30°C° 0 mm 2 mps 751 mmHg 40%
07:00 +31°C° 0 mm 3 mps 752 mmHg 38%
08:00 +34°C° 0 mm 4 mps 752 mmHg 37%
09:00 +37°C° 0 mm 4 mps 752 mmHg 30%
10:00 +40°C° 0 mm 4 mps 752 mmHg 23%
11:00 +43°C° 0 mm 4 mps 751 mmHg 16%
12:00 +45°C° 0 mm 5 mps 750 mmHg 14%
13:00 +46°C° 0 mm 5 mps 750 mmHg 12%
14:00 +46°C° 0 mm 6 mps 749 mmHg 11%
15:00 +46°C° 0 mm 6 mps 748 mmHg 11%
16:00 +45°C° 0 mm 6 mps 748 mmHg 11%
17:00 +45°C° 0 mm 7 mps 748 mmHg 11%
18:00 +41°C° 0 mm 6 mps 748 mmHg 15%
19:00 +39°C° 0 mm 5 mps 749 mmHg 20%
20:00 +36°C° 0 mm 4 mps 750 mmHg 24%
21:00 +35°C° 0 mm 4 mps 750 mmHg 30%
22:00 +34°C° 0 mm 4 mps 750 mmHg 35%
23:00 +33°C° 0 mm 3 mps 750 mmHg 41%

20 April, Tuesday

Time Temperature Precipitation Wind Pressure Humidity
00:00 +31°C° 0 mm 3 mps 750 mmHg 43%
01:00 +31°C° 0 mm 3 mps 750 mmHg 45%
02:00 +30°C° 0 mm 3 mps 750 mmHg 46%
03:00 +30°C° 0 mm 3 mps 750 mmHg 50%
04:00 +29°C° 0 mm 2 mps 750 mmHg 54%
05:00 +28°C° 0 mm 2 mps 750 mmHg 58%
06:00 +29°C° 0 mm 3 mps 751 mmHg 54%
07:00 +31°C° 0 mm 3 mps 751 mmHg 51%
08:00 +33°C° 0 mm 3 mps 752 mmHg 47%
09:00 +35°C° 0 mm 4 mps 752 mmHg 38%
10:00 +37°C° 0 mm 4 mps 751 mmHg 30%
11:00 +41°C° 0 mm 5 mps 751 mmHg 21%
12:00 +42°C° 0 mm 5 mps 750 mmHg 18%
13:00 +43°C° 0 mm 5 mps 749 mmHg 16%
14:00 +45°C° 0 mm 5 mps 749 mmHg 13%
15:00 +44°C° 0 mm 6 mps 748 mmHg 14%
16:00 +44°C° 0 mm 6 mps 748 mmHg 15%
17:00 +42°C° 0 mm 6 mps 748 mmHg 16%
18:00 +40°C° 0 mm 5 mps 749 mmHg 19%
19:00 +38°C° 0 mm 4 mps 749 mmHg 22%
20:00 +36°C° 0 mm 3 mps 750 mmHg 25%
21:00 +35°C° 0 mm 3 mps 750 mmHg 30%
22:00 +34°C° 0 mm 3 mps 750 mmHg 36%
23:00 +33°C° 0 mm 3 mps 751 mmHg 42%

21 April, Wednesday

Time Temperature Precipitation Wind Pressure Humidity
00:00 +31°C° 0 mm 3 mps 750 mmHg 41%
01:00 +31°C° 0 mm 3 mps 750 mmHg 40%
02:00 +31°C° 0 mm 3 mps 750 mmHg 39%
03:00 +30°C° 0 mm 3 mps 750 mmHg 45%
04:00 +29°C° 0 mm 3 mps 751 mmHg 50%
05:00 +29°C° 0 mm 2 mps 751 mmHg 56%
06:00 +30°C° 0 mm 2 mps 752 mmHg 54%
07:00 +31°C° 0 mm 3 mps 752 mmHg 52%
08:00 +31°C° 0 mm 3 mps 753 mmHg 51%
09:00 +34°C° 0 mm 3 mps 753 mmHg 45%
10:00 +35°C° 0 mm 3 mps 753 mmHg 39%
11:00 +37°C° 0 mm 4 mps 753 mmHg 33%
12:00 +38°C° 0 mm 4 mps 752 mmHg 29%
13:00 +40°C° 0 mm 4 mps 752 mmHg 25%
14:00 +41°C° 0 mm 4 mps 751 mmHg 21%
15:00 +41°C° 0 mm 4 mps 751 mmHg 20%
16:00 +41°C° 0 mm 5 mps 750 mmHg 19%
17:00 +40°C° 0 mm 5 mps 750 mmHg 18%
18:00 +39°C° 0 mm 5 mps 750 mmHg 21%
19:00 +36°C° 0 mm 4 mps 751 mmHg 23%
20:00 +35°C° 0 mm 3 mps 751 mmHg 25%
21:00 +33°C° 0 mm 3 mps 751 mmHg 32%
22:00 +31°C° 0 mm 3 mps 752 mmHg 38%
23:00 +30°C° 0 mm 3 mps 752 mmHg 45%

22 April, Thursday

Time Temperature Precipitation Wind Pressure Humidity
00:00 +29°C° 0 mm 3 mps 752 mmHg 47%
01:00 +29°C° 0 mm 3 mps 752 mmHg 48%
02:00 +28°C° 0 mm 3 mps 752 mmHg 50%
03:00 +28°C° 0 mm 2 mps 752 mmHg 53%
04:00 +27°C° 0 mm 2 mps 752 mmHg 55%
05:00 +26°C° 0 mm 2 mps 752 mmHg 58%
06:00 +28°C° 0 mm 2 mps 753 mmHg 55%
07:00 +29°C° 0 mm 2 mps 753 mmHg 51%
08:00 +31°C° 0 mm 2 mps 754 mmHg 48%
09:00 +34°C° 0 mm 2 mps 753 mmHg 39%
10:00 +37°C° 0 mm 3 mps 753 mmHg 29%
11:00 +40°C° 0 mm 3 mps 753 mmHg 19%
12:00 +42°C° 0 mm 3 mps 752 mmHg 16%
13:00 +43°C° 0 mm 3 mps 751 mmHg 13%
14:00 +44°C° 0 mm 4 mps 750 mmHg 10%
15:00 +44°C° 0 mm 4 mps 750 mmHg 10%
16:00 +44°C° 0 mm 4 mps 750 mmHg 10%
17:00 +45°C° 0 mm 5 mps 749 mmHg 9%
18:00 +41°C° 0 mm 4 mps 750 mmHg 12%
19:00 +38°C° 0 mm 4 mps 750 mmHg 14%
20:00 +35°C° 0 mm 3 mps 751 mmHg 17%
21:00 +34°C° 0 mm 4 mps 751 mmHg 26%
22:00 +32°C° 0 mm 4 mps 751 mmHg 34%
23:00 +30°C° 0 mm 4 mps 751 mmHg 43%
Show more